Rogers City, MI

12:13 AM EDT on August 17, 2017 (GMT -0400)
Presque Isle County

Weather History for KPZQ - October, 2012

Change the Weather History Date:

Wednesday, October 24, 2012

  Actual Average (KAPN) Record (KAPN)
Temperature  
Mean Temperature 54 °F -  
Max Temperature 59 °F 55 °F 83 °F (1963)
Min Temperature 50 °F 35 °F 19 °F (1972)
Degree Days  
Heating Degree Days 10    
Growing Degree Days 4 (Base 50)    
Moisture  
Dew Point 51 °F    
Average Humidity 88    
Maximum Humidity 92    
Minimum Humidity 81    
Precipitation  
Precipitation 0.00 in - - ()
Sea Level Pressure  
Sea Level Pressure 30.00 in    
Wind  
Wind Speed 7 mph (SE)    
Max Wind Speed 12 mph    
Max Gust Speed 22 mph    
Visibility 5 miles    
Events Rain    
Averages and records for this station are not official NWS values.
T = Trace of Precipitation, MM = Missing Value Source: NWS Daily Summary

Daily Weather History Graph

Daily Weather History Graph

Search for Another Location

Airport or City:

Trip Planner

Search our weather history database for the weather conditions in past years. The results will help you decide how hot, cold, wet, or windy it might be!

Date:

Astronomy

Oct. 24, 2012 Rise Set
Actual Time 8:04 AM EDT 6:33 PM EDT
Civil Twilight 7:33 AM EDT 7:04 PM EDT
Nautical Twilight 6:59 AM EDT 7:38 PM EDT
Astronomical Twilight 6:25 AM EDT 8:12 PM EDT
Moon 4:01 PM EDT (10/24) 2:44 AM EDT (10/24)
Length of Visible Light 11h 30m
Length of Day
10h 29m
Waxing Gibbous, 76% of the Moon is Illuminated
Oct 24
Waxing Gibbous
Oct 29
Full
Nov 6
Last Quarter
Nov 13
New
Nov 20
First Quarter

Hourly Weather History & Observations

Time (EDT) Temp. Dew Point Humidity Pressure Visibility Wind Dir Wind Speed Gust Speed Precip Events Conditions
12:14 AM 50.2 °F 45.7 °F 85% 30.07 in 10.0 mi ESE 6.9 mph - N/A   Overcast
12:34 AM 50.2 °F 45.5 °F 84% 30.06 in 10.0 mi ESE 9.2 mph - N/A   Overcast
12:54 AM 50.4 °F 45.5 °F 83% 30.06 in 10.0 mi ESE 9.2 mph - N/A   Overcast
1:15 AM 50.4 °F 45.7 °F 84% 30.07 in 7.0 mi ESE 5.8 mph - N/A   Overcast
1:34 AM 50.0 °F 46.0 °F 86% 30.06 in 5.0 mi East 5.8 mph - N/A   Overcast
1:54 AM 50.2 °F 46.6 °F 87% 30.06 in 5.0 mi ESE 9.2 mph - N/A   Overcast
2:14 AM 50.4 °F 47.1 °F 89% 30.06 in 4.0 mi ESE 8.1 mph - N/A   Overcast
2:34 AM 50.2 °F 47.3 °F 90% 30.06 in 4.0 mi ESE 10.4 mph - N/A   Overcast
2:55 AM 50.2 °F 47.3 °F 90% 30.05 in 2.5 mi ESE 9.2 mph - N/A   Overcast
3:14 AM 50.0 °F 47.3 °F 90% 30.05 in 2.5 mi ESE 6.9 mph - N/A   Overcast
3:34 AM 50.0 °F 47.3 °F 90% 30.05 in 2.5 mi ESE 5.8 mph - N/A   Overcast
3:55 AM 50.0 °F 47.3 °F 90% 30.04 in 3.0 mi ESE 9.2 mph - N/A   Overcast
4:14 AM 50.0 °F 47.3 °F 90% 30.04 in 4.0 mi ESE 6.9 mph - N/A   Overcast
4:35 AM 50.0 °F 47.3 °F 90% 30.03 in 4.0 mi ESE 8.1 mph - N/A   Overcast
4:54 AM 50.0 °F 47.3 °F 90% 30.04 in 5.0 mi ESE 5.8 mph - N/A   Overcast
5:14 AM 50.0 °F 47.3 °F 90% 30.03 in 4.0 mi SE 4.6 mph - N/A   Overcast
5:35 AM 50.0 °F 47.5 °F 91% 30.03 in 3.0 mi SE 5.8 mph - N/A   Overcast
5:54 AM 50.2 °F 47.7 °F 91% 30.03 in 3.0 mi SE 6.9 mph - N/A   Overcast
6:14 AM 50.2 °F 47.7 °F 91% 30.02 in 3.0 mi SE 6.9 mph - N/A   Overcast
6:35 AM 50.4 °F 47.8 °F 91% 30.02 in 4.0 mi SE 6.9 mph - N/A   Overcast
6:54 AM 50.5 °F 48.2 °F 92% 30.02 in 4.0 mi SE 6.9 mph - N/A   Overcast
7:14 AM 50.9 °F 48.2 °F 90% 30.02 in 4.0 mi SE 8.1 mph - N/A   Overcast
7:35 AM 50.9 °F 48.2 °F 90% 30.02 in 4.0 mi SSE 8.1 mph - N/A   Overcast
8:15 AM 51.1 °F 48.6 °F 91% 30.02 in 4.0 mi SE 8.1 mph - N/A Rain Light Rain
8:35 AM 51.1 °F 48.6 °F 91% 30.02 in 2.5 mi SE 9.2 mph - N/A   Overcast
8:54 AM 51.3 °F 48.7 °F 91% 30.01 in 3.0 mi SE 8.1 mph - N/A   Overcast
9:15 AM 51.4 °F 48.7 °F 90% 30.01 in 5.0 mi SSE 8.1 mph - N/A   Overcast
9:34 AM 51.8 °F 49.1 °F 90% 30.01 in 4.0 mi SE 9.2 mph - N/A   Overcast
9:54 AM 52.2 °F 49.5 °F 91% 30.01 in 5.0 mi SSE 5.8 mph - N/A   Overcast
10:14 AM 52.7 °F 49.8 °F 90% 30.01 in 5.0 mi SSE 10.4 mph - N/A   Overcast
10:34 AM 53.1 °F 50.2 °F 90% 30.00 in 5.0 mi SSE 11.5 mph - N/A   Overcast
10:55 AM 53.6 °F 50.9 °F 91% 30.00 in 5.0 mi SSE 6.9 mph - N/A   Overcast
11:14 AM 54.1 °F 51.1 °F 89% 30.01 in 5.0 mi South 5.8 mph - N/A   Overcast
11:34 AM 54.5 °F 51.3 °F 89% 30.02 in 5.0 mi South 4.6 mph - N/A   Overcast
11:55 AM 54.9 °F 52.0 °F 90% 30.02 in 4.0 mi SSE 4.6 mph - N/A   Overcast
12:14 PM 54.9 °F 52.0 °F 90% 30.03 in 3.0 mi South 3.5 mph - N/A   Overcast
12:34 PM 54.9 °F 52.0 °F 90% 30.02 in 2.5 mi SSE 3.5 mph - N/A   Overcast
12:55 PM 55.2 °F 52.3 °F 90% 30.02 in 2.5 mi SE 3.5 mph - N/A   Overcast
1:14 PM 55.6 °F 52.9 °F 91% 30.01 in 1.8 mi SE 3.5 mph - N/A   Overcast
1:35 PM 56.1 °F 53.4 °F 91% 30.01 in 2.0 mi ESE 3.5 mph - N/A   Overcast
1:54 PM 56.5 °F 53.4 °F 89% 30.00 in 4.0 mi East 4.6 mph - N/A   Overcast
2:14 PM 57.0 °F 53.4 °F 88% 29.99 in 5.0 mi East 6.9 mph - N/A   Overcast
2:34 PM 56.8 °F 52.9 °F 87% 29.98 in 4.0 mi East 8.1 mph - N/A   Overcast
2:54 PM 56.8 °F 52.7 °F 86% 29.98 in 5.0 mi East 8.1 mph - N/A   Overcast
3:14 PM 56.3 °F 52.3 °F 87% 29.97 in 5.0 mi East 5.8 mph - N/A   Overcast
3:34 PM 56.3 °F 52.0 °F 85% 29.96 in 7.0 mi East 6.9 mph - N/A   Overcast
3:55 PM 56.8 °F 52.5 °F 85% 29.96 in 7.0 mi East 5.8 mph - N/A   Overcast
4:14 PM 58.6 °F 53.2 °F 82% 29.95 in 10.0 mi East 8.1 mph - N/A   Overcast
4:35 PM 58.5 °F 52.7 °F 81% 29.96 in 10.0 mi East 5.8 mph - N/A   Overcast
4:54 PM 59.0 °F 53.2 °F 81% 29.97 in 10.0 mi ESE 4.6 mph - N/A   Overcast
5:14 PM 59.0 °F 53.2 °F 81% 29.97 in 10.0 mi SE 6.9 mph - N/A   Overcast
5:35 PM 58.6 °F 53.6 °F 83% 29.97 in 7.0 mi SE 6.9 mph - N/A   Overcast
5:54 PM 58.1 °F 53.1 °F 83% 29.96 in 7.0 mi ESE 4.6 mph - N/A   Overcast
6:14 PM 57.4 °F 52.7 °F 84% 29.97 in 7.0 mi SSE 5.8 mph - N/A   Overcast
6:54 PM 57.2 °F 53.2 °F 87% 29.97 in 5.0 mi SE 8.1 mph - N/A   Overcast
7:15 PM 56.7 °F 53.1 °F 88% 29.97 in 4.0 mi SE 8.1 mph - N/A   Overcast
7:34 PM 56.5 °F 53.1 °F 88% 29.97 in 5.0 mi SSE 6.9 mph - N/A   Overcast
7:54 PM 56.3 °F 53.1 °F 89% 29.97 in 4.0 mi SE 8.1 mph - N/A   Overcast
8:15 PM 56.5 °F 53.6 °F 90% 29.97 in 4.0 mi SE 6.9 mph - N/A   Overcast
8:34 PM 56.7 °F 53.8 °F 90% 29.96 in 4.0 mi SE 8.1 mph - N/A   Overcast
8:54 PM 57.2 °F 54.5 °F 91% 29.96 in 4.0 mi SE 9.2 mph - N/A   Overcast
9:15 PM 58.3 °F 55.4 °F 90% 29.95 in 5.0 mi SSE 11.5 mph 17.3 mph N/A   Overcast
9:34 PM 58.5 °F 55.0 °F 88% 29.94 in 5.0 mi SE 9.2 mph - N/A Rain Rain
9:55 PM 58.3 °F 54.9 °F 88% 29.94 in 5.0 mi SE 10.4 mph - N/A   Overcast
10:14 PM 58.1 °F 54.5 °F 88% 29.93 in 4.0 mi SE 11.5 mph 16.1 mph N/A Rain Light Rain
10:34 PM 57.7 °F 54.1 °F 88% 29.93 in 4.0 mi SSE 11.5 mph 21.9 mph N/A   Overcast
10:55 PM 57.2 °F 53.6 °F 88% 29.93 in 4.0 mi SSE 10.4 mph 18.4 mph N/A   Scattered Clouds
11:14 PM 56.8 °F 53.6 °F 89% 29.92 in 4.0 mi SSE 9.2 mph - N/A   Scattered Clouds
11:34 PM 57.2 °F 53.6 °F 88% 29.91 in 4.0 mi SSE 10.4 mph - N/A   Scattered Clouds
11:55 PM 57.0 °F 53.6 °F 88% 29.91 in 4.0 mi SSE 9.2 mph - N/A   Scattered Clouds